Year,Month,Day,Hour,Minute,Value (Times are PST for temperature in C)
2017,08,02,00,00,19.30
2017,08,02,00,01,19.30
2017,08,02,00,02,19.30
2017,08,02,00,03,19.30
2017,08,02,00,04,19.20
2017,08,02,00,05,19.20
2017,08,02,00,06,19.20
2017,08,02,00,07,19.20
2017,08,02,00,08,19.10
2017,08,02,00,09,19.10
2017,08,02,00,10,19.10
2017,08,02,00,11,19.00
2017,08,02,00,12,19.00
2017,08,02,00,13,18.90
2017,08,02,00,14,18.90
2017,08,02,00,15,18.90
2017,08,02,00,16,18.90
2017,08,02,00,17,18.80
2017,08,02,00,18,18.80
2017,08,02,00,19,18.80
2017,08,02,00,20,18.80
2017,08,02,00,21,18.80
2017,08,02,00,22,18.80
2017,08,02,00,23,18.80
2017,08,02,00,24,18.80
2017,08,02,00,25,18.80
2017,08,02,00,26,18.80
2017,08,02,00,27,18.80
2017,08,02,00,28,18.80
2017,08,02,00,29,18.80
2017,08,02,00,30,18.90
2017,08,02,00,31,18.90
2017,08,02,00,32,18.90
2017,08,02,00,33,18.90
2017,08,02,00,34,18.90
2017,08,02,00,35,18.90
2017,08,02,00,36,18.90
2017,08,02,00,37,18.90
2017,08,02,00,38,18.90
2017,08,02,00,39,18.80
2017,08,02,00,40,18.80
2017,08,02,00,41,18.80
2017,08,02,00,42,18.70
2017,08,02,00,43,18.70
2017,08,02,00,44,18.70
2017,08,02,00,45,18.70
2017,08,02,00,46,18.70
2017,08,02,00,47,18.70
2017,08,02,00,48,18.70
2017,08,02,00,49,18.60
2017,08,02,00,50,18.60
2017,08,02,00,51,18.60
2017,08,02,00,52,18.60
2017,08,02,00,53,18.60
2017,08,02,00,54,18.60
2017,08,02,00,55,18.60
2017,08,02,00,56,18.60
2017,08,02,00,57,18.70
2017,08,02,00,58,18.70
2017,08,02,00,59,18.70
2017,08,02,01,00,18.70
2017,08,02,01,01,18.70
2017,08,02,01,02,18.70
2017,08,02,01,03,18.70
2017,08,02,01,04,18.70
2017,08,02,01,05,18.70
2017,08,02,01,06,18.70
2017,08,02,01,07,18.70
2017,08,02,01,08,18.70
2017,08,02,01,09,18.70
2017,08,02,01,10,18.70
2017,08,02,01,11,18.70
2017,08,02,01,12,18.70
2017,08,02,01,13,18.70
2017,08,02,01,14,18.70
2017,08,02,01,15,18.60
2017,08,02,01,16,18.60
2017,08,02,01,17,18.60
2017,08,02,01,18,18.50
2017,08,02,01,19,18.50
2017,08,02,01,20,18.40
2017,08,02,01,21,18.40
2017,08,02,01,22,18.40
2017,08,02,01,23,18.40
2017,08,02,01,24,18.40
2017,08,02,01,25,18.30
2017,08,02,01,26,18.30
2017,08,02,01,27,18.30
2017,08,02,01,28,18.30
2017,08,02,01,29,18.30
2017,08,02,01,30,18.20
2017,08,02,01,31,18.20
2017,08,02,01,32,18.20
2017,08,02,01,33,18.20
2017,08,02,01,34,18.20
2017,08,02,01,35,18.20
2017,08,02,01,36,18.20
2017,08,02,01,37,18.10
2017,08,02,01,38,18.10
2017,08,02,01,39,18.10
2017,08,02,01,40,18.10
2017,08,02,01,41,18.10
2017,08,02,01,42,18.00
2017,08,02,01,43,18.00
2017,08,02,01,44,18.00
2017,08,02,01,45,17.90
2017,08,02,01,46,17.90
2017,08,02,01,47,17.90
2017,08,02,01,48,17.90
2017,08,02,01,49,17.80
2017,08,02,01,50,17.80
2017,08,02,01,51,17.80
2017,08,02,01,52,17.80
2017,08,02,01,53,17.80
2017,08,02,01,54,17.80
2017,08,02,01,55,17.80
2017,08,02,01,56,17.80
2017,08,02,01,57,17.80
2017,08,02,01,58,17.80
2017,08,02,01,59,17.90
2017,08,02,02,00,17.90
2017,08,02,02,01,17.90
2017,08,02,02,02,17.90
2017,08,02,02,03,17.90
2017,08,02,02,04,17.90
2017,08,02,02,05,17.90
2017,08,02,02,06,17.90
2017,08,02,02,07,17.90
2017,08,02,02,08,17.90
2017,08,02,02,09,17.90
2017,08,02,02,10,17.90
2017,08,02,02,11,17.90
2017,08,02,02,12,17.80
2017,08,02,02,13,17.80
2017,08,02,02,14,17.80
2017,08,02,02,15,17.70
2017,08,02,02,16,17.70
2017,08,02,02,17,17.70
2017,08,02,02,18,17.70
2017,08,02,02,19,17.60
2017,08,02,02,20,17.60
2017,08,02,02,21,17.60
2017,08,02,02,22,17.60
2017,08,02,02,23,17.60
2017,08,02,02,24,17.60
2017,08,02,02,25,17.60
2017,08,02,02,26,17.60
2017,08,02,02,27,17.50
2017,08,02,02,28,17.50
2017,08,02,02,29,17.50
2017,08,02,02,30,17.50
2017,08,02,02,31,17.50
2017,08,02,02,32,17.50
2017,08,02,02,33,17.50
2017,08,02,02,34,17.50
2017,08,02,02,35,17.50
2017,08,02,02,36,17.50
2017,08,02,02,37,17.50
2017,08,02,02,38,17.50
2017,08,02,02,39,17.50
2017,08,02,02,40,17.50
2017,08,02,02,41,17.50
2017,08,02,02,42,17.50
2017,08,02,02,43,17.50
2017,08,02,02,44,17.40
2017,08,02,02,45,17.40
2017,08,02,02,46,17.40
2017,08,02,02,47,17.40
2017,08,02,02,48,17.40
2017,08,02,02,49,17.30
2017,08,02,02,50,17.30
2017,08,02,02,51,17.30
2017,08,02,02,52,17.30
2017,08,02,02,53,17.30
2017,08,02,02,54,17.30
2017,08,02,02,55,17.30
2017,08,02,02,56,17.20
2017,08,02,02,57,17.20
2017,08,02,02,58,17.20
2017,08,02,02,59,17.20
2017,08,02,03,00,17.20
2017,08,02,03,01,17.20
2017,08,02,03,02,17.20
2017,08,02,03,03,17.20
2017,08,02,03,04,17.20
2017,08,02,03,05,17.20
2017,08,02,03,06,17.20
2017,08,02,03,07,17.20
2017,08,02,03,08,17.20
2017,08,02,03,09,17.20
2017,08,02,03,10,17.20
2017,08,02,03,11,17.20
2017,08,02,03,12,17.20
2017,08,02,03,13,17.10
2017,08,02,03,14,17.10
2017,08,02,03,15,17.10
2017,08,02,03,16,17.10
2017,08,02,03,17,17.10
2017,08,02,03,18,17.10
2017,08,02,03,19,17.10
2017,08,02,03,20,17.10
2017,08,02,03,21,17.00
2017,08,02,03,22,17.00
2017,08,02,03,23,17.00
2017,08,02,03,24,16.90
2017,08,02,03,25,16.90
2017,08,02,03,26,16.90
2017,08,02,03,27,16.90
2017,08,02,03,28,16.80
2017,08,02,03,29,16.80
2017,08,02,03,30,16.80
2017,08,02,03,31,16.80
2017,08,02,03,32,16.80
2017,08,02,03,33,16.70
2017,08,02,03,34,16.70
2017,08,02,03,35,16.70
2017,08,02,03,36,16.70
2017,08,02,03,37,16.70
2017,08,02,03,38,16.70
2017,08,02,03,39,16.70
2017,08,02,03,40,16.70
2017,08,02,03,41,16.70
2017,08,02,03,42,16.70
2017,08,02,03,43,16.70
2017,08,02,03,44,16.70
2017,08,02,03,45,16.70
2017,08,02,03,46,16.70
2017,08,02,03,47,16.70
2017,08,02,03,48,16.70
2017,08,02,03,49,16.70
2017,08,02,03,50,16.70
2017,08,02,03,51,16.70
2017,08,02,03,52,16.70
2017,08,02,03,53,16.70
2017,08,02,03,54,16.70
2017,08,02,03,55,16.70
2017,08,02,03,56,16.60
2017,08,02,03,57,16.60
2017,08,02,03,58,16.60
2017,08,02,03,59,16.60
2017,08,02,04,00,16.60
2017,08,02,04,01,16.60
2017,08,02,04,02,16.60
2017,08,02,04,03,16.50
2017,08,02,04,04,16.50
2017,08,02,04,05,16.50
2017,08,02,04,06,16.50
2017,08,02,04,07,16.50
2017,08,02,04,08,16.50
2017,08,02,04,09,16.50
2017,08,02,04,10,16.50
2017,08,02,04,11,16.60
2017,08,02,04,12,16.60
2017,08,02,04,13,16.60
2017,08,02,04,14,16.60
2017,08,02,04,15,16.60
2017,08,02,04,16,16.60
2017,08,02,04,17,16.60
2017,08,02,04,18,16.60
2017,08,02,04,19,16.60
2017,08,02,04,20,16.60
2017,08,02,04,21,16.60
2017,08,02,04,22,16.60
2017,08,02,04,23,16.60
2017,08,02,04,24,16.60
2017,08,02,04,25,16.60
2017,08,02,04,26,16.60
2017,08,02,04,27,16.50
2017,08,02,04,28,16.60
2017,08,02,04,29,16.50
2017,08,02,04,30,16.50
2017,08,02,04,31,16.50
2017,08,02,04,32,16.60
2017,08,02,04,33,16.60
2017,08,02,04,34,16.60
2017,08,02,04,35,16.60
2017,08,02,04,36,16.60
2017,08,02,04,37,16.50
2017,08,02,04,38,16.50
2017,08,02,04,39,16.50
2017,08,02,04,40,16.50
2017,08,02,04,41,16.50
2017,08,02,04,42,16.40
2017,08,02,04,43,16.40
2017,08,02,04,44,16.40
2017,08,02,04,45,16.30
2017,08,02,04,46,16.30
2017,08,02,04,47,16.20
2017,08,02,04,48,16.20
2017,08,02,04,49,16.20
2017,08,02,04,50,16.20
2017,08,02,04,51,16.10
2017,08,02,04,52,16.10
2017,08,02,04,53,16.10
2017,08,02,04,54,16.10
2017,08,02,04,55,16.10
2017,08,02,04,56,16.10
2017,08,02,04,57,16.10
2017,08,02,04,58,16.10
2017,08,02,04,59,16.10
2017,08,02,05,00,16.10
2017,08,02,05,01,16.20
2017,08,02,05,02,16.20
2017,08,02,05,03,16.20
2017,08,02,05,04,16.20
2017,08,02,05,05,16.20
2017,08,02,05,06,16.20
2017,08,02,05,07,16.20
2017,08,02,05,08,16.20
2017,08,02,05,09,16.20
2017,08,02,05,10,16.20
2017,08,02,05,11,16.20
2017,08,02,05,12,16.20
2017,08,02,05,13,16.20
2017,08,02,05,14,16.20
2017,08,02,05,15,16.10
2017,08,02,05,16,16.10
2017,08,02,05,17,16.10
2017,08,02,05,18,16.10
2017,08,02,05,19,16.10
2017,08,02,05,20,16.10
2017,08,02,05,21,16.10
2017,08,02,05,22,16.10
2017,08,02,05,23,16.10
2017,08,02,05,24,16.10
2017,08,02,05,25,16.10
2017,08,02,05,26,16.10
2017,08,02,05,27,16.10
2017,08,02,05,28,16.10
2017,08,02,05,29,16.10
2017,08,02,05,30,16.10
2017,08,02,05,31,16.10
2017,08,02,05,32,16.00
2017,08,02,05,33,16.00
2017,08,02,05,34,16.00
2017,08,02,05,35,16.00
2017,08,02,05,36,16.00
2017,08,02,05,37,16.00
2017,08,02,05,38,16.00
2017,08,02,05,39,16.00
2017,08,02,05,40,16.00
2017,08,02,05,41,16.00
2017,08,02,05,42,16.00
2017,08,02,05,43,16.00
2017,08,02,05,44,16.00
2017,08,02,05,45,16.00
2017,08,02,05,46,16.00
2017,08,02,05,47,16.00
2017,08,02,05,48,16.00
2017,08,02,05,49,16.00
2017,08,02,05,50,16.00
2017,08,02,05,51,16.00
2017,08,02,05,52,16.00
2017,08,02,05,53,16.00
2017,08,02,05,54,16.00
2017,08,02,05,55,16.00
2017,08,02,05,56,16.00
2017,08,02,05,57,16.00
2017,08,02,05,58,16.00
2017,08,02,05,59,16.00
2017,08,02,06,00,15.90
2017,08,02,06,01,16.00
2017,08,02,06,02,15.90
2017,08,02,06,03,15.90
2017,08,02,06,04,15.90
2017,08,02,06,05,15.90
2017,08,02,06,06,15.90
2017,08,02,06,07,15.90
2017,08,02,06,08,15.90
2017,08,02,06,09,16.00
2017,08,02,06,10,16.00
2017,08,02,06,11,16.00
2017,08,02,06,12,16.00
2017,08,02,06,13,16.00
2017,08,02,06,14,16.00
2017,08,02,06,15,16.00
2017,08,02,06,16,16.00
2017,08,02,06,17,16.00
2017,08,02,06,18,16.00
2017,08,02,06,19,16.10
2017,08,02,06,20,16.10
2017,08,02,06,21,16.10
2017,08,02,06,22,16.10
2017,08,02,06,23,16.10
2017,08,02,06,24,16.10
2017,08,02,06,25,16.10
2017,08,02,06,26,16.00
2017,08,02,06,27,16.10
2017,08,02,06,28,16.00
2017,08,02,06,29,16.00
2017,08,02,06,30,16.00
2017,08,02,06,31,16.00
2017,08,02,06,32,16.00
2017,08,02,06,33,16.00
2017,08,02,06,34,16.00
2017,08,02,06,35,16.00
2017,08,02,06,36,16.00
2017,08,02,06,37,16.00
2017,08,02,06,38,16.00
2017,08,02,06,39,16.00
2017,08,02,06,40,16.00
2017,08,02,06,41,16.00
2017,08,02,06,42,16.00
2017,08,02,06,43,16.00
2017,08,02,06,44,16.00
2017,08,02,06,45,16.10
2017,08,02,06,46,16.10
2017,08,02,06,47,16.10
2017,08,02,06,48,16.10
2017,08,02,06,49,16.10
2017,08,02,06,50,16.10
2017,08,02,06,51,16.10
2017,08,02,06,52,16.10
2017,08,02,06,53,16.10
2017,08,02,06,54,16.10
2017,08,02,06,55,16.10
2017,08,02,06,56,16.10
2017,08,02,06,57,16.10
2017,08,02,06,58,16.10
2017,08,02,06,59,16.10
2017,08,02,07,00,16.10
2017,08,02,07,01,16.10
2017,08,02,07,02,16.10
2017,08,02,07,03,16.10
2017,08,02,07,04,16.10
2017,08,02,07,05,16.10
2017,08,02,07,06,16.10
2017,08,02,07,07,16.10
2017,08,02,07,08,16.20
2017,08,02,07,09,16.20
2017,08,02,07,10,16.20
2017,08,02,07,11,16.20
2017,08,02,07,12,16.20
2017,08,02,07,13,16.20
2017,08,02,07,14,16.20
2017,08,02,07,15,16.20
2017,08,02,07,16,16.20
2017,08,02,07,17,16.20
2017,08,02,07,18,16.30
2017,08,02,07,19,16.30
2017,08,02,07,20,16.30
2017,08,02,07,21,16.30
2017,08,02,07,22,16.30
2017,08,02,07,23,16.30
2017,08,02,07,24,16.30
2017,08,02,07,25,16.30
2017,08,02,07,26,16.30
2017,08,02,07,27,16.30
2017,08,02,07,28,16.40
2017,08,02,07,29,16.40
2017,08,02,07,30,16.40
2017,08,02,07,31,16.50
2017,08,02,07,32,16.50
2017,08,02,07,33,16.60
2017,08,02,07,34,16.60
2017,08,02,07,35,16.60
2017,08,02,07,36,16.70
2017,08,02,07,37,16.70
2017,08,02,07,38,16.70
2017,08,02,07,39,16.70
2017,08,02,07,40,16.80
2017,08,02,07,41,16.80
2017,08,02,07,42,16.80
2017,08,02,07,43,16.90
2017,08,02,07,44,16.90
2017,08,02,07,45,16.90
2017,08,02,07,46,17.00
2017,08,02,07,47,17.10
2017,08,02,07,48,17.10
2017,08,02,07,49,17.10
2017,08,02,07,50,17.10
2017,08,02,07,51,17.20
2017,08,02,07,52,17.20
2017,08,02,07,53,17.20
2017,08,02,07,54,17.30
2017,08,02,07,55,17.30
2017,08,02,07,56,17.30
2017,08,02,07,57,17.40
2017,08,02,07,58,17.40
2017,08,02,07,59,17.40
2017,08,02,08,00,17.50
2017,08,02,08,01,17.50
2017,08,02,08,02,17.60
2017,08,02,08,03,17.60
2017,08,02,08,04,17.60
2017,08,02,08,05,17.70
2017,08,02,08,06,17.70
2017,08,02,08,07,17.70
2017,08,02,08,08,17.80
2017,08,02,08,09,17.80
2017,08,02,08,10,17.90
2017,08,02,08,11,17.90
2017,08,02,08,12,18.00
2017,08,02,08,13,18.10
2017,08,02,08,14,18.20
2017,08,02,08,15,18.20
2017,08,02,08,16,18.30
2017,08,02,08,17,18.30
2017,08,02,08,18,18.40
2017,08,02,08,19,18.40
2017,08,02,08,20,18.40
2017,08,02,08,21,18.50
2017,08,02,08,22,18.50
2017,08,02,08,23,18.60
2017,08,02,08,24,18.60
2017,08,02,08,25,18.70
2017,08,02,08,26,18.70
2017,08,02,08,27,18.70
2017,08,02,08,28,18.80
2017,08,02,08,29,18.80
2017,08,02,08,30,18.80
2017,08,02,08,31,18.90
2017,08,02,08,32,18.90
2017,08,02,08,33,18.90
2017,08,02,08,34,19.00
2017,08,02,08,35,19.00
2017,08,02,08,36,19.10
2017,08,02,08,37,19.10
2017,08,02,08,38,19.20
2017,08,02,08,39,19.20
2017,08,02,08,40,19.30
2017,08,02,08,41,19.30
2017,08,02,08,42,19.40
2017,08,02,08,43,19.40
2017,08,02,08,44,19.50
2017,08,02,08,45,19.50
2017,08,02,08,46,19.60
2017,08,02,08,47,19.70
2017,08,02,08,48,19.70
2017,08,02,08,49,19.80
2017,08,02,08,50,19.80
2017,08,02,08,51,19.90
2017,08,02,08,52,20.00
2017,08,02,08,53,20.00
2017,08,02,08,54,20.10
2017,08,02,08,55,20.20
2017,08,02,08,56,20.20
2017,08,02,08,57,20.30
2017,08,02,08,58,20.30
2017,08,02,08,59,20.30
2017,08,02,09,00,20.30
2017,08,02,09,01,20.30
2017,08,02,09,02,20.30
2017,08,02,09,03,20.40
2017,08,02,09,04,20.40
2017,08,02,09,05,20.40
2017,08,02,09,06,20.50
2017,08,02,09,07,20.50
2017,08,02,09,08,20.50
2017,08,02,09,09,20.60
2017,08,02,09,10,20.60
2017,08,02,09,11,20.60
2017,08,02,09,12,20.70
2017,08,02,09,13,20.70
2017,08,02,09,14,20.70
2017,08,02,09,15,20.70
2017,08,02,09,16,20.80
2017,08,02,09,17,20.80
2017,08,02,09,18,20.90
2017,08,02,09,19,20.90
2017,08,02,09,20,20.90
2017,08,02,09,21,21.00
2017,08,02,09,22,21.00
2017,08,02,09,23,21.10
2017,08,02,09,24,21.10
2017,08,02,09,25,21.10
2017,08,02,09,26,21.20
2017,08,02,09,27,21.20
2017,08,02,09,28,21.30
2017,08,02,09,29,21.30
2017,08,02,09,30,21.40
2017,08,02,09,31,21.50
2017,08,02,09,32,21.60
2017,08,02,09,33,21.60
2017,08,02,09,34,21.80
2017,08,02,09,35,21.80
2017,08,02,09,36,21.90
2017,08,02,09,37,22.00
2017,08,02,09,38,22.10
2017,08,02,09,39,22.20
2017,08,02,09,40,22.20
2017,08,02,09,41,22.30
2017,08,02,09,42,22.40
2017,08,02,09,43,22.40
2017,08,02,09,44,22.50
2017,08,02,09,45,22.50
2017,08,02,09,46,22.50
2017,08,02,09,47,22.60
2017,08,02,09,48,22.60
2017,08,02,09,49,22.60
2017,08,02,09,50,22.60
2017,08,02,09,51,22.60
2017,08,02,09,52,22.60
2017,08,02,09,53,22.60
2017,08,02,09,54,22.60
2017,08,02,09,55,22.60
2017,08,02,09,56,22.70
2017,08,02,09,57,22.70
2017,08,02,09,58,22.70
2017,08,02,09,59,22.70
2017,08,02,10,00,22.80
2017,08,02,10,01,22.80
2017,08,02,10,02,22.90
2017,08,02,10,03,22.90
2017,08,02,10,04,23.00
2017,08,02,10,05,23.00
2017,08,02,10,06,23.00
2017,08,02,10,07,23.00
2017,08,02,10,08,23.00
2017,08,02,10,09,23.10
2017,08,02,10,10,23.10
2017,08,02,10,11,23.10
2017,08,02,10,12,23.10
2017,08,02,10,13,23.10
2017,08,02,10,14,23.20
2017,08,02,10,15,23.20
2017,08,02,10,16,23.20
2017,08,02,10,17,23.30
2017,08,02,10,18,23.30
2017,08,02,10,19,23.30
2017,08,02,10,20,23.40
2017,08,02,10,21,23.40
2017,08,02,10,22,23.50
2017,08,02,10,23,23.60
2017,08,02,10,24,23.70
2017,08,02,10,25,23.80
2017,08,02,10,26,23.80
2017,08,02,10,27,23.90
2017,08,02,10,28,24.00
2017,08,02,10,29,24.00
2017,08,02,10,30,24.10
2017,08,02,10,31,24.20
2017,08,02,10,32,24.20
2017,08,02,10,33,24.30
2017,08,02,10,34,24.30
2017,08,02,10,35,24.40
2017,08,02,10,36,24.40
2017,08,02,10,37,24.40
2017,08,02,10,38,24.40
2017,08,02,10,39,24.40
2017,08,02,10,40,24.40
2017,08,02,10,41,24.50
2017,08,02,10,42,24.50
2017,08,02,10,43,24.40
2017,08,02,10,44,24.30
2017,08,02,10,45,24.30
2017,08,02,10,46,24.20
2017,08,02,10,47,24.20
2017,08,02,10,48,24.10
2017,08,02,10,49,24.10
2017,08,02,10,50,24.20
2017,08,02,10,51,24.20
2017,08,02,10,52,24.20
2017,08,02,10,53,24.20
2017,08,02,10,54,24.30
2017,08,02,10,55,24.30
2017,08,02,10,56,24.30
2017,08,02,10,57,24.30
2017,08,02,10,58,24.30
2017,08,02,10,59,24.40
2017,08,02,11,00,24.40
2017,08,02,11,01,24.50
2017,08,02,11,02,24.50
2017,08,02,11,03,24.60
2017,08,02,11,04,24.60
2017,08,02,11,05,24.70
2017,08,02,11,06,24.70
2017,08,02,11,07,24.70
2017,08,02,11,08,24.80
2017,08,02,11,09,24.80
2017,08,02,11,10,24.80
2017,08,02,11,11,24.80
2017,08,02,11,12,24.80
2017,08,02,11,13,24.80
2017,08,02,11,14,24.70
2017,08,02,11,15,24.70
2017,08,02,11,16,24.70
2017,08,02,11,17,24.70
2017,08,02,11,18,24.80
2017,08,02,11,19,24.80
2017,08,02,11,20,24.80
2017,08,02,11,21,24.80
2017,08,02,11,22,24.90
2017,08,02,11,23,24.90
2017,08,02,11,24,25.00
2017,08,02,11,25,25.00
2017,08,02,11,26,25.00
2017,08,02,11,27,25.00
2017,08,02,11,28,25.00
2017,08,02,11,29,25.00
2017,08,02,11,30,25.10
2017,08,02,11,31,25.10
2017,08,02,11,32,25.20
2017,08,02,11,33,25.20
2017,08,02,11,34,25.20
2017,08,02,11,35,25.20
2017,08,02,11,36,25.20
2017,08,02,11,37,25.20
2017,08,02,11,38,25.20
2017,08,02,11,39,25.20
2017,08,02,11,40,25.20
2017,08,02,11,41,25.20
2017,08,02,11,42,25.10
2017,08,02,11,43,25.10
2017,08,02,11,44,25.10
2017,08,02,11,45,25.10
2017,08,02,11,46,25.00
2017,08,02,11,47,25.10
2017,08,02,11,48,25.10
2017,08,02,11,49,25.10
2017,08,02,11,50,25.20
2017,08,02,11,51,25.20
2017,08,02,11,52,25.30
2017,08,02,11,53,25.30
2017,08,02,11,54,25.30
2017,08,02,11,55,25.30
2017,08,02,11,56,25.40
2017,08,02,11,57,25.40
2017,08,02,11,58,25.40
2017,08,02,11,59,25.40
2017,08,02,12,00,25.40
2017,08,02,12,01,25.50
2017,08,02,12,02,25.50
2017,08,02,12,03,25.50
2017,08,02,12,04,25.40
2017,08,02,12,05,25.40
2017,08,02,12,06,25.30
2017,08,02,12,07,25.20
2017,08,02,12,08,25.20
2017,08,02,12,09,25.20
2017,08,02,12,10,25.20
2017,08,02,12,11,25.20
2017,08,02,12,12,25.30
2017,08,02,12,13,25.40
2017,08,02,12,14,25.50
2017,08,02,12,15,25.60
2017,08,02,12,16,25.60
2017,08,02,12,17,25.70
2017,08,02,12,18,25.70
2017,08,02,12,19,25.70
2017,08,02,12,20,25.70
2017,08,02,12,21,25.70
2017,08,02,12,22,25.70
2017,08,02,12,23,25.50
2017,08,02,12,24,25.30
2017,08,02,12,25,25.10
2017,08,02,12,26,24.90
2017,08,02,12,27,24.80
2017,08,02,12,28,24.80
2017,08,02,12,29,24.70
2017,08,02,12,30,24.70
2017,08,02,12,31,24.60
2017,08,02,12,32,24.60
2017,08,02,12,33,24.60
2017,08,02,12,34,24.60
2017,08,02,12,35,24.60
2017,08,02,12,36,24.60
2017,08,02,12,37,24.60
2017,08,02,12,38,24.60
2017,08,02,12,39,24.70
2017,08,02,12,40,24.80
2017,08,02,12,41,24.90
2017,08,02,12,42,24.90
2017,08,02,12,43,24.90
2017,08,02,12,44,25.00
2017,08,02,12,45,25.00
2017,08,02,12,46,25.10
2017,08,02,12,47,25.00
2017,08,02,12,48,25.00
2017,08,02,12,49,24.90
2017,08,02,12,50,24.90
2017,08,02,12,51,24.90
2017,08,02,12,52,24.90
2017,08,02,12,53,24.90
2017,08,02,12,54,24.90
2017,08,02,12,55,25.00
2017,08,02,12,56,25.10
2017,08,02,12,57,25.10
2017,08,02,12,58,25.10
2017,08,02,12,59,25.10
2017,08,02,13,00,25.10
2017,08,02,13,01,25.20
2017,08,02,13,02,25.20
2017,08,02,13,03,25.30
2017,08,02,13,04,25.40
2017,08,02,13,05,25.40
2017,08,02,13,06,25.30
2017,08,02,13,07,25.40
2017,08,02,13,08,25.50
2017,08,02,13,09,25.50
2017,08,02,13,10,25.60
2017,08,02,13,11,25.70
2017,08,02,13,12,25.70
2017,08,02,13,13,25.80
2017,08,02,13,14,25.90
2017,08,02,13,15,25.90
2017,08,02,13,16,25.90
2017,08,02,13,17,25.90
2017,08,02,13,18,25.90
2017,08,02,13,19,25.90
2017,08,02,13,20,25.80
2017,08,02,13,21,25.80
2017,08,02,13,22,25.80
2017,08,02,13,23,25.80
2017,08,02,13,24,25.80
2017,08,02,13,25,25.80
2017,08,02,13,26,25.90
2017,08,02,13,27,25.90
2017,08,02,13,28,26.00
2017,08,02,13,29,26.00
2017,08,02,13,30,26.00
2017,08,02,13,31,26.10
2017,08,02,13,32,26.10
2017,08,02,13,33,26.20
2017,08,02,13,34,26.30
2017,08,02,13,35,26.30
2017,08,02,13,36,26.30
2017,08,02,13,37,26.30
2017,08,02,13,38,26.30
2017,08,02,13,39,26.30
2017,08,02,13,40,26.30
2017,08,02,13,41,26.30
2017,08,02,13,42,26.30
2017,08,02,13,43,26.40
2017,08,02,13,44,26.50
2017,08,02,13,45,26.50
2017,08,02,13,46,26.60
2017,08,02,13,47,26.60
2017,08,02,13,48,26.60
2017,08,02,13,49,26.60
2017,08,02,13,50,26.70
2017,08,02,13,51,26.70
2017,08,02,13,52,26.70
2017,08,02,13,53,26.70
2017,08,02,13,54,26.70
2017,08,02,13,55,26.70
2017,08,02,13,56,26.70
2017,08,02,13,57,26.70
2017,08,02,13,58,26.80
2017,08,02,13,59,26.80
2017,08,02,14,00,26.90
2017,08,02,14,01,27.00
2017,08,02,14,02,27.10
2017,08,02,14,03,27.20
2017,08,02,14,04,27.20
2017,08,02,14,05,27.20
2017,08,02,14,06,27.20
2017,08,02,14,07,27.10
2017,08,02,14,08,27.10
2017,08,02,14,09,27.10
2017,08,02,14,10,27.10
2017,08,02,14,11,27.10
2017,08,02,14,12,27.20
2017,08,02,14,13,27.20
2017,08,02,14,14,27.20
2017,08,02,14,15,27.10
2017,08,02,14,16,27.10
2017,08,02,14,17,27.10
2017,08,02,14,18,27.10
2017,08,02,14,19,27.20
2017,08,02,14,20,27.20
2017,08,02,14,21,27.30
2017,08,02,14,22,27.30
2017,08,02,14,23,27.40
2017,08,02,14,24,27.40
2017,08,02,14,25,27.40
2017,08,02,14,26,27.40
2017,08,02,14,27,27.40
2017,08,02,14,28,27.50
2017,08,02,14,29,27.50
2017,08,02,14,30,27.50
2017,08,02,14,31,27.40
2017,08,02,14,32,27.40
2017,08,02,14,33,27.40
2017,08,02,14,34,27.50
2017,08,02,14,35,27.50
2017,08,02,14,36,27.60
2017,08,02,14,37,27.70
2017,08,02,14,38,27.70
2017,08,02,14,39,27.70
2017,08,02,14,40,27.80
2017,08,02,14,41,27.80
2017,08,02,14,42,27.90
2017,08,02,14,43,28.00
2017,08,02,14,44,28.10
2017,08,02,14,45,28.10
2017,08,02,14,46,28.10
2017,08,02,14,47,28.10
2017,08,02,14,48,28.10
2017,08,02,14,49,28.10
2017,08,02,14,50,28.10
2017,08,02,14,51,28.10
2017,08,02,14,52,28.20
2017,08,02,14,53,28.30
2017,08,02,14,54,28.40
2017,08,02,14,55,28.50
2017,08,02,14,56,28.60
2017,08,02,14,57,28.70
2017,08,02,14,58,28.80
2017,08,02,14,59,28.80
2017,08,02,15,00,28.80
2017,08,02,15,01,28.80
2017,08,02,15,02,28.80
2017,08,02,15,03,28.70
2017,08,02,15,04,28.70
2017,08,02,15,05,28.80
2017,08,02,15,06,28.80
2017,08,02,15,07,28.90
2017,08,02,15,08,28.90
2017,08,02,15,09,29.00
2017,08,02,15,10,28.90
2017,08,02,15,11,28.90
2017,08,02,15,12,28.90
2017,08,02,15,13,28.90
2017,08,02,15,14,28.80
2017,08,02,15,15,28.80
2017,08,02,15,16,28.80
2017,08,02,15,17,28.80
2017,08,02,15,18,28.80
2017,08,02,15,19,28.80
2017,08,02,15,20,28.80
2017,08,02,15,21,28.80
2017,08,02,15,22,28.80
2017,08,02,15,23,28.90
2017,08,02,15,24,28.90
2017,08,02,15,25,28.90
2017,08,02,15,26,29.00
2017,08,02,15,27,29.00
2017,08,02,15,28,29.10
2017,08,02,15,29,29.10
2017,08,02,15,30,29.10
2017,08,02,15,31,29.10
2017,08,02,15,32,29.10
2017,08,02,15,33,29.10
2017,08,02,15,34,29.10
2017,08,02,15,35,29.10
2017,08,02,15,36,29.10
2017,08,02,15,37,29.20
2017,08,02,15,38,29.20
2017,08,02,15,39,29.20
2017,08,02,15,40,29.20
2017,08,02,15,41,29.20
2017,08,02,15,42,29.30
2017,08,02,15,43,29.30
2017,08,02,15,44,29.30
2017,08,02,15,45,29.20
2017,08,02,15,46,29.20
2017,08,02,15,47,29.20
2017,08,02,15,48,29.30
2017,08,02,15,49,29.30
2017,08,02,15,50,29.30
2017,08,02,15,51,29.20
2017,08,02,15,52,29.20
2017,08,02,15,53,29.20
2017,08,02,15,54,29.10
2017,08,02,15,55,29.10
2017,08,02,15,56,29.10
2017,08,02,15,57,29.00
2017,08,02,15,58,29.00
2017,08,02,15,59,28.90
2017,08,02,16,00,28.90
2017,08,02,16,01,28.90
2017,08,02,16,02,28.80
2017,08,02,16,03,28.90
2017,08,02,16,04,28.90
2017,08,02,16,05,29.00
2017,08,02,16,06,29.10
2017,08,02,16,07,29.00
2017,08,02,16,08,28.90
2017,08,02,16,09,28.90
2017,08,02,16,10,28.90
2017,08,02,16,11,28.90
2017,08,02,16,12,28.90
2017,08,02,16,13,28.90
2017,08,02,16,14,28.90
2017,08,02,16,15,28.90
2017,08,02,16,16,28.90
2017,08,02,16,17,28.90
2017,08,02,16,18,28.90
2017,08,02,16,19,28.90
2017,08,02,16,20,28.90
2017,08,02,16,21,28.90
2017,08,02,16,22,28.90
2017,08,02,16,23,28.90
2017,08,02,16,24,28.90
2017,08,02,16,25,28.90
2017,08,02,16,26,28.90
2017,08,02,16,27,28.90
2017,08,02,16,28,28.90
2017,08,02,16,29,28.90
2017,08,02,16,30,28.90
2017,08,02,16,31,28.90
2017,08,02,16,32,28.90
2017,08,02,16,33,29.00
2017,08,02,16,34,29.00
2017,08,02,16,35,29.00
2017,08,02,16,36,29.10
2017,08,02,16,37,29.10
2017,08,02,16,38,29.20
2017,08,02,16,39,29.20
2017,08,02,16,40,29.20
2017,08,02,16,41,29.20
2017,08,02,16,42,29.30
2017,08,02,16,43,29.40
2017,08,02,16,44,29.50
2017,08,02,16,45,29.60
2017,08,02,16,46,29.80
2017,08,02,16,47,29.80
2017,08,02,16,48,29.80
2017,08,02,16,49,29.80
2017,08,02,16,50,29.80
2017,08,02,16,51,29.80
2017,08,02,16,52,29.90
2017,08,02,16,53,29.90
2017,08,02,16,54,29.90
2017,08,02,16,55,29.90
2017,08,02,16,56,29.90
2017,08,02,16,57,29.80
2017,08,02,16,58,29.80
2017,08,02,16,59,29.90
2017,08,02,17,00,29.90
2017,08,02,17,01,29.90
2017,08,02,17,02,30.00
2017,08,02,17,03,30.00
2017,08,02,17,04,30.10
2017,08,02,17,05,30.10
2017,08,02,17,06,30.10
2017,08,02,17,07,30.00
2017,08,02,17,08,30.00
2017,08,02,17,09,30.00
2017,08,02,17,10,30.10
2017,08,02,17,11,30.10
2017,08,02,17,12,30.10
2017,08,02,17,13,30.00
2017,08,02,17,14,29.90
2017,08,02,17,15,29.90
2017,08,02,17,16,29.90
2017,08,02,17,17,29.90
2017,08,02,17,18,30.00
2017,08,02,17,19,29.90